This demonstration page uses our WeatherBlox Daily Observations layout. Learn more.

Left ArrowRight Arrow

36.17497, -115.13722

Hourly Observations for October 10, 2016

Temp ( °F °C ) Dew Point ( °F °C ) Humidity (%) Winds ( mph kmh ) Pressure ( in mb ) Visibility ( mi km ) Precip ( " mm )
12:53 am 00:53 Clear 70 21.1 41 5 35 35 NNW 5 7 29.97 1015 10 16.0934 0 0
1:53 am 01:53 Clear 69 20.6 40 4.4 35 35 NW 6 9 29.97 1015 10 16.0934 0 0
2:53 am 02:53 Clear 68 20 39 3.9 35 35 Calm 29.97 1015 10 16.0934 0 0
3:53 am 03:53 Clear 65 18.3 40 4.4 40 40 N 5 7 29.97 1015 10 16.0934 0 0
4:53 am 04:53 Clear 65 18.3 39 3.9 39 39 NW 6 9 29.97 1015 10 16.0934 0 0
5:53 am 05:53 Clear 64 17.8 39 3.9 40 40 NNW 3 6 29.98 1015 10 16.0934 0 0
6:53 am 06:53 Sunny 64 17.8 40 4.4 41 41 NNW 6 9 29.99 1016 10 16.0934 0 0
7:53 am 07:53 Sunny 67 19.4 40 4.4 37 37 NNW 5 7 30.01 1016 10 16.0934 0 0
8:53 am 08:53 Sunny 73 22.8 39 3.9 29 29 Calm 30.01 1016 10 16.0934 0 0
9:53 am 09:53 Sunny 77 25 38 3.3 24 24 ESE 7 11 30.01 1016 10 16.0934 0 0
10:53 am 10:53 Sunny 80 26.7 39 3.9 23 23 SE 3 6 30 1016 10 16.0934 0 0
11:53 am 11:53 Sunny 83 28.3 39 3.9 21 21 ESE 7 11 29.98 1015 10 16.0934 0 0
12:53 pm 12:53 Sunny 87 30.6 39 3.9 18 18 E 9 15 29.94 1014 10 16.0934 0 0
1:40 pm 13:40 Sunny 90 32 32 0 13 13 S 17 28 29.8 1009 10 16.0934 0 0
1:53 pm 13:53 Sunny 89 31.7 30 -1.1 12 12 S 18 30 29.91 1013 10 16.0934 0 0
2:53 pm 14:53 Sunny 89 31.7 29 -1.7 11 11 SW 13 20 29.9 1012 10 16.0934 0 0
3:53 pm 15:53 Sunny 89 31.7 27 -2.8 11 11 SSW 12 19 29.89 1012 10 16.0934 0 0
4:53 pm 16:53 Sunny 90 32.2 27 -2.8 10 10 WSW 9 15 29.87 1012 10 16.0934 0 0
5:53 pm 17:53 Sunny 87 30.6 29 -1.7 12 12 W 8 13 29.88 1012 10 16.0934 0 0
6:53 pm 18:53 Clear 85 29.4 27 -2.8 12 12 W 10 17 29.88 1012 10 16.0934 0 0
7:53 pm 19:53 Clear 83 28.3 28 -2.2 13 13 SW 8 13 29.89 1012 10 16.0934 0 0
8:53 pm 20:53 Clear 83 28.3 28 -2.2 13 13 WSW 8 13 29.89 1012 10 16.0934 0 0
9:53 pm 21:53 Clear 79 26.1 30 -1.1 17 17 SW 9 15 29.91 1013 10 16.0934 0 0
10:53 pm 22:53 Clear 75 23.9 30 -1.1 19 19 Calm 29.9 1013 10 16.0934 0 0
11:53 pm 23:53 Clear 77 25 34 1.1 21 21 SW 9 15 29.89 1012 10 16.0934 0 0

Powered by AerisWeather